Skip Page Navigation
NASA JPL Caltech
NASA Logo - Jet Propulsion Laboratory + View the NASA Portal
+ Near-Earth Object (NEO) Program
Search JPL
JPL Home Earth Solar System Stars & Galaxies Technology
JPL Solar System Dynamics
BODIES ORBITS EPHEMERIDES TOOLS PHYSICAL DATA DISCOVERY FAQ SITE MAP
JPL Small-Body Database Browser
Search: [ help ]  
242643 (2005 NZ6)
Classification: Apollo [NEO, PHA]          SPK-ID: 2242643
Ephemeris | Orbit Diagram | Orbital Elements | Physical Parameters | Discovery Circumstances | Close-Approach Data ]

[ hide orbit diagram ]
Orbit Diagram
Note: Make sure you have Java enabled on your browser to see the applet. This applet is provided as a 3D orbit visualization tool. The applet was implemented using 2-body methods, and hence should not be used for determining accurate long-term trajectories (over several years or decades) or planetary encounter circumstances. For accurate long-term ephemerides, please instead use our Horizons system.
Orbit Viewer

Additional Notes: the orbits shown in the applet are color coded. The planets are white lines, and the asteroid/comet is a blue line. The bright white line indicates the portion of the orbit that is above the ecliptic plane, and the darker portion is below the ecliptic plane. Likewise for the asteroid/comet orbit, the light blue indicates the portion above the ecliptic plane, and the dark blue the portion below the ecliptic plane.

Orbit Viewer applet originally written and kindly provided by Osamu Ajiki (AstroArts), and further modified by Ron Baalke (JPL).


Orbital Elements at Epoch 2456400.5 (2013-Apr-18.0) TDB
Reference: JPL 61 (heliocentric ecliptic J2000)
 Element Value Uncertainty (1-sigma)   Units 
e .8645333465237548 1.4856e-08  
a 1.833806466970988 5.3635e-09 AU
q .2484196252036563 2.6907e-08 AU
i 8.495869516705769 6.1649e-06 deg
node 39.52491180812297 6.8768e-06 deg
peri 48.18238337223372 7.6703e-06 deg
M 11.3060163949669 4.5753e-07 deg
tp 2456372.013716842200
(2013-Mar-20.51371684)
1.0889e-06 JED
period 907.0446723722505
2.48
3.9793e-06
1.089e-08
d
yr
n .3968933515242083 1.7412e-09 deg/d
Q 3.41919330873832 1e-08 AU
  Orbit Determination Parameters
   # obs. used (total)      473  
   # delay obs. used      6  
   # Doppler obs. used      3  
   data-arc span      2876 days (7.87 yr)  
   first obs. used      2005-07-03  
   last obs. used      2013-05-18  
   planetary ephem.      DE405  
   SB-pert. ephem.      SB405-CPV-2  
   condition code      0  
   fit RMS      .49151  
   data source      ORB  
   producer      Otto Matic  
   solution date      2013-May-24 01:15:12  

Additional Information
 Earth MOID = .00819969 AU 
 T_jup = 3.428 
[ show covariance matrix ]

Ephemeris | Orbit Diagram | Orbital Elements | Physical Parameters | Discovery Circumstances | Close-Approach Data ]

Physical Parameter Table
Parameter Symbol Value Units Sigma Reference Notes
absolute magnitude H 17.435 mag .5695 61 autocmod 2.5c

242643 (2005 NZ6)          Discovered 2005-Jul-03 by NEAT at Palomar (644)
Reference: 20100626/Numbers.arcLast Updated: 2010-06-28

[ show close-approach data ]
Ephemeris | Orbit Diagram | Orbital Elements | Physical Parameters | Discovery Circumstances | Close-Approach Data ]
ABOUT SSD CREDITS/AWARDS PRIVACY/COPYRIGHT GLOSSARY LINKS
FirstGov 2013-May-25 03:12 UT
(server date/time)  
NASA Home Page
Site Manager:   Donald K. Yeomans
Webmaster  Alan B. Chamberlin